[[{"header":{"parameterUnit":"m.s-1","parameterCategory":1,"la1":30.2991,"la2":30.254,"lo1":-89.0895,"lo2":-89.0444,"dy":0.0017,"dx":0.0017,"nx":28,"ny":28,"refTime":"2025-11-06T03:00:00:Z","depth":0,"parameterNumber":2,"parameterNumberName":"U-component_of_WINDS"},"data":[0,0,0,0,0,0,0,0,0,0,0,0,0,0,0,0,0,0,0,0,0,0,0,0,0,0,0,0,0,0,0,0,0,0,0,0,0,0,0,0,0,0,0,0,0,0,0,0,0,0,0,0,0,0,0,0,0,0,-1.4864,-1.4866,0,-1.5011,-1.5012,-1.5014,-1.51,-1.5101,-1.5101,-1.5101,-1.5253,-1.5257,-1.5261,0,0,0,0,0,0,0,0,0,0,0,0,0,-1.4661,-1.4664,-1.4864,-1.4866,-1.4868,-1.501,-1.5012,-1.5014,-1.51,-1.5101,-1.5101,-1.5101,-1.5252,-1.5257,-1.5261,0,0,0,0,0,0,0,0,0,0,0,0,0,-1.4772,-1.4665,-1.4864,-1.4928,-1.4935,-1.501,-1.5013,-1.5015,-1.51,-1.5101,-1.5101,-1.5102,-1.5251,-1.5256,-1.5262,-1.5285,0,0,-1.5279,-1.5281,0,0,0,0,0,0,0,0,-1.4766,-1.478,-1.4917,-1.4924,-1.4932,-1.5038,-1.4997,-1.5106,-1.51,-1.5037,-1.5101,-1.5102,-1.5181,-1.5193,-1.5219,-1.5292,-1.5299,-1.5279,-1.5283,-1.5285,-1.5286,0,0,0,0,0,0,0,-1.4758,-1.4774,-1.4922,-1.4918,-1.4928,-1.495,-1.4966,-1.5018,-1.5105,-1.5043,-1.5049,-1.5066,-1.5186,-1.5213,-1.5223,-1.5301,-1.5279,-1.5284,-1.5287,-1.529,-1.5401,-1.5401,0,0,0,0,0,0,-1.474,-1.4767,-1.4918,-1.4927,-1.4848,-1.4953,-1.4971,-1.5003,-1.5104,-1.512,-1.5065,-1.5069,-1.5204,-1.5217,-1.5229,-1.5263,-1.5285,-1.529,-1.5293,-1.5401,-1.5401,-1.54,0,0,0,0,0,0,-1.4735,-1.4753,-1.4912,-1.4849,-1.4871,-1.4956,-1.4991,-1.5006,-1.5034,-1.5121,-1.5137,-1.5077,-1.5205,-1.5221,-1.527,-1.5269,-1.5293,-1.5298,-1.5402,-1.5401,-1.5401,-1.5331,0,0,0,0,0,0,-1.4729,-1.475,-1.476,-1.4848,-1.4874,-1.495,-1.4991,-1.5008,-1.5043,-1.5049,-1.5137,-1.5152,-1.5206,-1.5261,-1.5276,-1.5277,-1.5302,-1.5402,-1.5401,-1.5401,-1.5333,-1.5328,-1.5323,0,0,0,0,0,-1.4721,-1.4735,-1.476,-1.4778,-1.4887,-1.495,-1.4964,-1.5026,-1.5042,-1.5053,-1.5109,-1.5149,-1.5267,-1.5266,-1.5283,-1.5286,-1.5403,-1.5402,-1.5401,-1.5336,-1.5329,-1.5323,0,0,0,0,0,0,-1.4645,-1.4748,-1.4777,-1.4819,-1.4875,-1.4964,-1.4979,-1.5017,-1.507,-1.5074,-1.515,-1.5168,-1.521,-1.5253,-1.525,-1.5314,-1.5339,-1.5342,-1.5284,-1.5278,-1.5273,-1.5261,-1.5307,0,0,0,0,0,-1.4633,-1.4675,-1.4763,-1.4792,-1.4818,-1.4893,-1.4923,-1.4966,-1.5027,-1.5051,-1.5111,-1.517,-1.522,-1.5252,-1.5303,-1.534,-1.536,-1.5351,-1.5345,-1.534,-1.5342,-1.5364,-1.536,-1.5397,-1.5398,-1.5398,0,0,-1.4609,-1.467,-1.4692,-1.4778,-1.4826,-1.4868,-1.4913,-1.4955,-1.4987,-1.5058,-1.5108,-1.5153,-1.5224,-1.5267,-1.5289,-1.5304,-1.5336,-1.5339,-1.5335,-1.5339,-1.5363,-1.5359,-1.5356,-1.5397,-1.5397,-1.5397,0,0,-1.4587,-1.4637,-1.4666,-1.4713,-1.4786,-1.4836,-1.4842,-1.4926,-1.4959,-1.5009,-1.5063,-1.5103,-1.5188,-1.5236,-1.5271,-1.5265,-1.5304,-1.528,-1.5252,-1.5273,-1.527,-1.5268,-1.5265,-1.5263,-1.5281,-1.5281,-1.528,0,-1.4548,-1.4612,-1.4677,-1.4716,-1.4752,-1.4817,-1.4847,-1.489,-1.4975,-1.4999,-1.5014,-1.5122,-1.5174,-1.5229,-1.5227,-1.5254,-1.5264,-1.527,-1.5265,-1.5263,-1.5262,-1.5261,-1.5259,-1.5277,-1.5277,-1.5278,-1.5278,0,-1.4561,-1.4604,-1.4619,-1.4699,-1.4736,-1.4771,-1.4841,-1.4871,-1.4911,-1.4959,-1.501,-1.5074,-1.5139,-1.5156,-1.5195,-1.5216,-1.5223,-1.525,-1.5278,-1.5254,-1.5254,-1.5254,-1.5272,-1.5273,-1.5274,-1.5275,0,0,-1.4495,-1.4608,-1.4613,-1.4649,-1.4733,-1.4768,-1.4806,-1.4868,-1.4892,-1.4949,-1.4982,-1.5052,-1.5078,-1.5118,-1.5164,-1.5182,-1.5172,-1.5208,-1.5211,-1.5198,-1.5199,-1.5176,-1.5175,-1.5199,-1.5199,-1.5199,-1.5192,0,-1.4484,-1.4553,-1.4611,-1.4659,-1.47,-1.4762,-1.4794,-1.4849,-1.4895,-1.4937,-1.4989,-1.5037,-1.5068,-1.5092,-1.5113,-1.5169,-1.5173,-1.517,-1.523,-1.5232,-1.521,-1.5175,-1.5152,-1.5143,-1.5193,-1.5193,-1.5193,0,-1.4481,-1.4533,-1.4584,-1.4662,-1.4682,-1.471,-1.4771,-1.4811,-1.4875,-1.4907,-1.495,-1.4997,-1.504,-1.5063,-1.5122,-1.5119,-1.5147,-1.5178,-1.5179,-1.5187,-1.521,-1.5181,-1.5141,-1.5139,-1.5193,-1.5193,-1.5193,0,-1.4426,-1.451,-1.4551,-1.458,-1.4673,-1.4691,-1.4731,-1.4795,-1.4829,-1.4883,-1.4905,-1.4964,-1.4996,-1.5041,-1.5102,-1.5113,-1.5155,-1.5183,-1.5183,-1.5182,-1.5189,-1.5188,-1.5153,-1.5208,-1.5208,-1.5208,-1.5208,0,-1.4408,-1.4436,-1.4527,-1.4553,-1.4586,-1.4654,-1.4686,-1.4731,-1.4788,-1.4823,-1.4881,-1.4913,-1.4993,-1.5035,-1.5083,-1.5125,-1.5139,-1.5167,-1.5179,-1.5161,-1.5157,-1.518,-1.5182,-1.5208,-1.5208,-1.5208,-1.5208,0,-1.4353,-1.4415,-1.4464,-1.4547,-1.4569,-1.459,-1.4662,-1.4689,-1.4738,-1.4782,-1.4796,-1.4873,-1.4925,-1.4991,-1.5065,-1.5097,-1.5134,-1.5153,-1.5111,-1.5119,-1.5114,-1.5114,-1.5093,-1.5093,-1.5148,-1.5147,-1.5146,0,-1.4336,-1.436,-1.4445,-1.4472,-1.4509,-1.4553,-1.4587,-1.4654,-1.4687,-1.4761,-1.4779,-1.4835,-1.4884,-1.4965,-1.5028,-1.5084,-1.5105,-1.5094,-1.5114,-1.5095,-1.5104,-1.5102,-1.5104,-1.5089,-1.5088,-1.5087,-1.5086,0,-1.4301,-1.433,-1.4376,-1.4432,-1.4471,-1.4519,-1.457,-1.4589,-1.4667,-1.4702,-1.4755,-1.4792,-1.4867,-1.4922,-1.4986,-1.5028,-1.507,-1.5079,-1.5082,-1.5064,-1.5038,-1.5051,-1.5097,-1.508,-1.508,-1.5081,-1.5081,-1.5081,-1.4265,-1.4287,-1.435,-1.44,-1.4445,-1.449,-1.4519,-1.4571,-1.4616,-1.4681,-1.4719,-1.477,-1.4834,-1.4924,-1.4964,-1.5006,-1.5022,-1.5026,-1.5027,-1.5027,-1.5021,-1.5032,-1.5019,-1.5019,-1.5019,-1.5019,-1.502,0,-1.4231,-1.4274,-1.4319,-1.4387,-1.4425,-1.446,-1.4518,-1.4548,-1.4593,-1.4648,-1.4694,-1.4755,-1.4808,-1.4875,-1.4933,-1.4954,-1.4974,-1.4967,-1.4966,-1.4975,-1.5004,-1.4995,-1.4949,-1.4949,-1.4949,-1.4949,-1.4949,-1.4949,-1.4218,-1.4258,-1.4295,-1.4358,-1.4402,-1.4452,-1.4482,-1.4524,-1.4568,-1.4633,-1.4677,-1.472,-1.478,-1.4842,-1.4893,-1.4911,-1.493,-1.4916,-1.494,-1.4966,-1.4973,-1.4979,-1.4971,-1.492,-1.492,-1.4907,-1.4907,-1.4907]},{"header":{"parameterUnit":"m.s-1","parameterCategory":1,"la1":30.2991,"la2":30.254,"lo1":-89.0895,"lo2":-89.0444,"dy":0.0017,"dx":0.0017,"nx":28,"ny":28,"refTime":"2025-11-06T03:00:00:Z","depth":0,"parameterNumber":3,"parameterNumberName":"V-component_of_WINDS"},"data":[0,0,0,0,0,0,0,0,0,0,0,0,0,0,0,0,0,0,0,0,0,0,0,0,0,0,0,0,0,0,0,0,0,0,0,0,0,0,0,0,0,0,0,0,0,0,0,0,0,0,0,0,0,0,0,0,0,0,4.7345,4.7346,0,4.7431,4.7432,4.7433,4.7461,4.746,4.746,4.746,4.7543,4.7545,4.7548,0,0,0,0,0,0,0,0,0,0,0,0,0,4.7202,4.7204,4.7344,4.7346,4.7347,4.7431,4.7432,4.7433,4.7461,4.746,4.746,4.7459,4.7542,4.7545,4.7548,0,0,0,0,0,0,0,0,0,0,0,0,0,4.7273,4.7205,4.7344,4.7371,4.7374,4.7431,4.7432,4.7434,4.7461,4.746,4.746,4.7459,4.7541,4.7545,4.7548,4.7584,0,0,4.756,4.7562,0,0,0,0,0,0,0,0,4.7269,4.7279,4.7366,4.7369,4.7373,4.7435,4.7412,4.7484,4.7461,4.7428,4.746,4.7459,4.7507,4.7514,4.7531,4.7587,4.7591,4.7561,4.7563,4.7565,4.7566,0,0,0,0,0,0,0,4.7264,4.7275,4.7379,4.7367,4.7371,4.7378,4.7387,4.7426,4.7469,4.7431,4.7433,4.7443,4.7509,4.7527,4.7533,4.7592,4.756,4.7564,4.7566,4.7568,4.7688,4.7689,0,0,0,0,0,0,4.7255,4.7271,4.7376,4.7381,4.7319,4.7381,4.7392,4.7415,4.7469,4.7477,4.7443,4.7444,4.7521,4.7528,4.7536,4.7584,4.7565,4.7568,4.757,4.7687,4.7688,4.7689,0,0,0,0,0,0,4.7252,4.7265,4.7372,4.7327,4.7341,4.7384,4.741,4.7417,4.7436,4.7479,4.7486,4.7454,4.7521,4.7531,4.7573,4.7587,4.757,4.7573,4.7686,4.7687,4.7688,4.7679,0,0,0,0,0,0,4.7248,4.7263,4.7277,4.7327,4.7343,4.7408,4.7411,4.7419,4.7443,4.7444,4.7491,4.7498,4.7521,4.7567,4.7577,4.7592,4.7576,4.7685,4.7686,4.7688,4.7678,4.7679,4.7681,0,0,0,0,0,4.7243,4.7268,4.7277,4.729,4.7361,4.7409,4.7418,4.7446,4.7444,4.7458,4.7487,4.7497,4.7584,4.7571,4.7583,4.7599,4.7684,4.7686,4.7688,4.7677,4.7679,4.7681,0,0,0,0,0,0,4.7215,4.7275,4.7286,4.7328,4.7364,4.7414,4.7432,4.7446,4.7481,4.7481,4.7512,4.7522,4.7563,4.7585,4.757,4.7639,4.7635,4.7639,4.7623,4.7625,4.7626,4.762,4.758,0,0,0,0,0,4.7214,4.7249,4.7299,4.7331,4.7349,4.7388,4.7409,4.7428,4.7465,4.748,4.7511,4.7546,4.7582,4.7605,4.764,4.7682,4.7694,4.7699,4.7701,4.7702,4.7705,4.7733,4.7737,4.7695,4.7695,4.7695,0,0,4.7212,4.7249,4.7268,4.7327,4.7357,4.7392,4.74,4.7435,4.7463,4.7484,4.7528,4.7553,4.7594,4.7638,4.7659,4.7657,4.772,4.7704,4.7705,4.7707,4.7736,4.774,4.7743,4.7697,4.7697,4.7696,0,0,4.7226,4.7257,4.729,4.7321,4.7368,4.7395,4.7403,4.7452,4.747,4.7515,4.7534,4.7566,4.7626,4.7657,4.768,4.7713,4.7724,4.7723,4.7731,4.7758,4.7761,4.7764,4.7779,4.7784,4.7726,4.7726,4.7726,0,4.7217,4.7272,4.7304,4.7342,4.7368,4.7394,4.7429,4.7456,4.7511,4.7529,4.7528,4.7608,4.7637,4.769,4.7699,4.7716,4.7728,4.7718,4.7759,4.7762,4.7765,4.778,4.7785,4.7726,4.7726,4.7726,4.7726,0,4.726,4.7299,4.7319,4.7376,4.7405,4.744,4.7479,4.7504,4.7522,4.7549,4.7597,4.7634,4.7679,4.7693,4.7708,4.775,4.7749,4.7753,4.7749,4.7769,4.7783,4.7788,4.7726,4.7726,4.7726,4.7726,0,0,4.7255,4.7334,4.7341,4.737,4.7426,4.7456,4.7494,4.7542,4.7564,4.7602,4.7636,4.769,4.7696,4.7722,4.7742,4.7766,4.7795,4.7768,4.7769,4.7774,4.7847,4.7845,4.785,4.7803,4.7804,4.7805,4.7844,0,4.7278,4.7349,4.7382,4.7438,4.7476,4.7504,4.7538,4.7576,4.7604,4.764,4.767,4.7709,4.7712,4.7729,4.7754,4.7786,4.781,4.7783,4.7835,4.7837,4.7825,4.7857,4.7853,4.7889,4.785,4.7851,4.7851,0,4.7313,4.7357,4.7417,4.7475,4.7492,4.7522,4.7571,4.7605,4.765,4.7669,4.7702,4.7723,4.7765,4.776,4.782,4.7801,4.7825,4.7845,4.7847,4.7853,4.7845,4.7866,4.79,4.7906,4.786,4.7859,4.7858,0,4.7307,4.738,4.7427,4.745,4.7517,4.7539,4.7567,4.7613,4.7641,4.7684,4.7703,4.7749,4.7774,4.781,4.7843,4.7835,4.7901,4.7897,4.7919,4.7918,4.7931,4.793,4.7971,4.7944,4.7944,4.7944,4.7944,0,4.733,4.7366,4.7426,4.7455,4.7499,4.7537,4.7579,4.7609,4.7651,4.7687,4.7713,4.7746,4.7788,4.7827,4.7853,4.7901,4.7911,4.7929,4.7935,4.7927,4.7925,4.7943,4.7942,4.7945,4.7945,4.7945,4.7945,0,4.7328,4.737,4.7424,4.7486,4.7503,4.7532,4.7585,4.7615,4.7646,4.7692,4.7705,4.7753,4.7801,4.7839,4.7899,4.7917,4.7969,4.7975,4.7954,4.7958,4.7978,4.7977,4.8033,4.8044,4.8008,4.8008,4.8009,0,4.734,4.737,4.7437,4.7465,4.7495,4.7538,4.7569,4.761,4.7641,4.7699,4.7723,4.7773,4.7816,4.7891,4.7932,4.798,4.7988,4.8005,4.7995,4.7988,4.7992,4.799,4.7995,4.8006,4.8006,4.8006,4.8006,0,4.7358,4.7379,4.7423,4.7477,4.7515,4.7557,4.7601,4.7622,4.7671,4.7704,4.7756,4.779,4.7856,4.7906,4.796,4.7989,4.8007,4.801,4.8018,4.801,4.7998,4.8008,4.7959,4.8008,4.8008,4.8008,4.8008,4.8008,4.7365,4.7395,4.7449,4.7499,4.7538,4.758,4.7613,4.7651,4.7695,4.7754,4.7775,4.7829,4.7879,4.7953,4.7984,4.8027,4.8027,4.8038,4.8041,4.8043,4.8044,4.7991,4.8036,4.8036,4.8036,4.8036,4.8036,0,4.7386,4.7424,4.747,4.7534,4.7574,4.7591,4.7642,4.7674,4.7722,4.7768,4.7812,4.7873,4.7924,4.7971,4.8024,4.805,4.806,4.8063,4.8062,4.8069,4.8039,4.8028,4.8055,4.8055,4.8055,4.8055,4.8055,4.8055,4.7402,4.7456,4.7484,4.7558,4.7595,4.765,4.7678,4.7718,4.7756,4.7825,4.7869,4.79,4.7948,4.8006,4.8054,4.8067,4.8086,4.8088,4.8102,4.8073,4.8071,4.8068,4.8058,4.8091,4.8091,4.8129,4.813,4.813]}]]